Weather History for Port Aransas, TX

Change the Weather History Date:

Tuesday, February 18, 2014

  Actual Average (KCRP) Record (KCRP)
Temperature  
Mean Temperature 64 °F 61 °F  
Max Temperature 67 °F 71 °F 94 °F (1986)
Min Temperature 60 °F 51 °F 25 °F (1936)
Degree Days  
Heating Degree Days 2 6  
Month to date heating degree days 124  
Since 1 July heating degree days 751  
Cooling Degree Days 0 2  
Month to date cooling degree days 29  
Year to date cooling degree days 59  
Growing Degree Days 14 (Base 50)    
Moisture  
Dew Point 62 °F    
Average Humidity 97    
Maximum Humidity 100    
Minimum Humidity 84    
Precipitation  
Precipitation 0.00 in 0.07 in 1.59 in (1905)
Month to date precipitation 1.20  
Year to date precipitation 2.74  
Snow  
Snow 0.00 in - - ()
Month to date snowfall  
Since 1 July snowfall  
Snow Depth -    
Sea Level Pressure  
Sea Level Pressure 30.01 in    
Wind  
Wind Speed 6 mph (SSE)    
Max Wind Speed 15 mph    
Max Gust Speed 20 mph    
Visibility 4 miles    
Events Fog    
T = Trace of Precipitation, MM = Missing Value Source: NWS Daily Summary

Daily Weather History Graph

Daily Weather History Graph

Search for Another Location

Airport:

Trip Planner

Search our weather history database for the weather conditions in past years. The results will help you decide how hot, cold, wet, or windy it might be!

Date:

Astronomy

Feb. 18, 2014 Rise Set
Actual Time 7:03 AM CST 6:21 PM CST
Civil Twilight 6:39 AM CST 6:45 PM CST
Nautical Twilight 6:11 AM CST 7:12 PM CST
Astronomical Twilight 5:44 AM CST 7:40 PM CST
Moon 9:51 PM CST (2/18) 8:57 AM CST (2/18)
Length of Visible Light 12h 06m
Length of Day
11h 18m
Waning Gibbous, 87% of the Moon is Illuminated
Feb 18
Waning Gibbous
Feb 22
Last Quarter
Mar 1
New
Mar 8
First Quarter
Mar 16
Full

Hourly Weather History & Observations

Time (CST) Temp. Dew Point Humidity Pressure Visibility Wind Dir Wind Speed Gust Speed Precip Events Conditions
12:15 AM 62.8 °F 62.8 °F 100% 30.07 in 0.2 mi East 3.5 mph - N/A Fog Fog
12:35 AM 62.1 °F 62.1 °F 100% 30.07 in 0.5 mi East 3.5 mph - N/A Fog Fog
12:55 AM 62.1 °F 62.1 °F 100% 30.06 in 0.5 mi East 3.5 mph - N/A Fog Fog
1:15 AM 61.9 °F 61.9 °F 100% 30.06 in 0.2 mi ESE 4.6 mph - N/A Fog Fog
1:35 AM 62.1 °F 62.1 °F 100% 30.06 in 0.2 mi ESE 4.6 mph - N/A Fog Fog
1:55 AM 62.8 °F 62.8 °F 100% 30.06 in 0.2 mi ESE 4.6 mph - N/A Fog Fog
2:15 AM 62.6 °F 62.6 °F 100% 30.06 in 0.2 mi East 4.6 mph - N/A Fog Fog
2:35 AM 63.0 °F 63.0 °F 100% 30.06 in 0.2 mi Calm Calm - N/A Fog Fog
2:55 AM 63.3 °F 63.3 °F 100% 30.05 in 0.2 mi Calm Calm - N/A Fog Fog
3:15 AM 63.7 °F 63.7 °F 100% 30.05 in 0.2 mi Calm Calm - N/A Fog Fog
3:35 AM 63.5 °F 63.5 °F 100% 30.04 in 0.2 mi Calm Calm - N/A Fog Fog
3:55 AM 62.8 °F 62.8 °F 100% 30.04 in 0.5 mi Calm Calm - N/A Fog Fog
4:15 AM 63.0 °F 63.0 °F 100% 30.04 in 0.2 mi Calm Calm - N/A Fog Fog
4:35 AM 62.8 °F 62.8 °F 100% 30.04 in 0.2 mi Calm Calm - N/A Fog Fog
4:55 AM 63.1 °F 63.1 °F 100% 30.04 in 0.2 mi SE 4.6 mph - N/A Fog Fog
5:15 AM 63.0 °F 63.0 °F 100% 30.05 in 0.5 mi ESE 3.5 mph - N/A Fog Fog
5:35 AM 63.7 °F 63.7 °F 100% 30.05 in 0.5 mi SSE 5.8 mph - N/A Fog Fog
5:55 AM 63.5 °F 63.5 °F 100% 30.05 in 0.5 mi SSE 5.8 mph - N/A Fog Fog
6:15 AM 63.3 °F 63.3 °F 100% 30.05 in 0.2 mi South 5.8 mph - N/A Fog Fog
6:35 AM 63.1 °F 63.1 °F 100% 30.05 in 0.2 mi South 8.1 mph - N/A Fog Fog
6:55 AM 61.9 °F 61.9 °F 100% 30.05 in 0.2 mi South 6.9 mph - N/A Fog Fog
7:15 AM 62.1 °F 62.1 °F 100% 30.06 in 0.2 mi South 9.2 mph - N/A Fog Fog
7:35 AM 62.6 °F 62.6 °F 100% 30.06 in 0.2 mi South 9.2 mph - N/A Fog Fog
7:55 AM 62.6 °F 62.6 °F 100% 30.07 in 0.5 mi SSW 5.8 mph - N/A Fog Fog
8:15 AM 64.0 °F 64.0 °F 100% 30.07 in 0.2 mi South 10.4 mph - N/A Fog Fog
8:35 AM 63.0 °F 63.0 °F 100% 30.07 in 0.2 mi South 5.8 mph - N/A Fog Fog
8:55 AM 63.3 °F 63.3 °F 100% 30.08 in 0.2 mi South 5.8 mph - N/A Fog Fog
9:15 AM 63.0 °F 63.0 °F 100% 30.07 in 0.2 mi South 8.1 mph - N/A Fog Fog
9:35 AM 63.3 °F 63.3 °F 100% 30.07 in 0.2 mi South 10.4 mph - N/A Fog Fog
9:55 AM 62.4 °F 62.4 °F 100% 30.07 in 0.2 mi South 8.1 mph - N/A Fog Fog
10:15 AM 62.8 °F 62.8 °F 100% 30.07 in 0.2 mi South 6.9 mph - N/A Fog Fog
10:35 AM 62.8 °F 62.8 °F 100% 30.07 in 0.2 mi South 9.2 mph - N/A Fog Fog
10:55 AM 63.0 °F 63.0 °F 100% 30.06 in 0.2 mi SSE 9.2 mph - N/A Fog Fog
11:15 AM 62.6 °F 62.6 °F 100% 30.06 in 0.2 mi SSE 6.9 mph - N/A Fog Fog
11:35 AM 62.6 °F 62.6 °F 100% 30.06 in 3.0 mi South 8.1 mph - N/A   Overcast
11:55 AM 63.5 °F 63.5 °F 100% 30.04 in 1.8 mi South 10.4 mph - N/A   Overcast
12:15 PM 64.4 °F 62.4 °F 93% 30.04 in 2.5 mi South 11.5 mph - N/A   Overcast
12:35 PM 65.7 °F 62.4 °F 89% 30.03 in 4.0 mi South 10.4 mph - N/A   Overcast
12:55 PM 64.8 °F 62.1 °F 91% 30.03 in 5.0 mi South 9.2 mph - N/A   Overcast
1:15 PM 64.2 °F 61.5 °F 91% 30.01 in 1.8 mi South 10.4 mph - N/A   Overcast
1:35 PM 65.3 °F 62.1 °F 89% 30.01 in 1.8 mi South 8.1 mph - N/A   Overcast
1:55 PM 66.2 °F 62.6 °F 88% 30.00 in 1.2 mi South 11.5 mph - N/A   Overcast
2:15 PM 66.2 °F 62.4 °F 88% 29.99 in 1.0 mi South 10.4 mph - N/A   Overcast
2:35 PM 65.3 °F 61.9 °F 89% 29.98 in 5.0 mi SSE 11.5 mph 16.1 mph N/A   Overcast
2:55 PM 65.5 °F 61.7 °F 88% 29.97 in 10.0 mi SSE 12.7 mph - N/A   Scattered Clouds
3:15 PM 66.6 °F 61.7 °F 84% 29.96 in 10.0 mi SSE 11.5 mph - N/A   Clear
3:35 PM 66.2 °F 62.4 °F 88% 29.96 in 10.0 mi SE 11.5 mph - N/A   Clear
3:55 PM 66.4 °F 62.6 °F 88% 29.95 in 10.0 mi SE 12.7 mph 18.4 mph N/A   Clear
4:15 PM 66.6 °F 62.8 °F 88% 29.94 in 10.0 mi SE 13.8 mph - N/A   Clear
4:35 PM 66.7 °F 62.8 °F 87% 29.94 in 10.0 mi SE 15.0 mph - N/A   Clear
4:55 PM 67.1 °F 63.5 °F 88% 29.93 in 10.0 mi SE 12.7 mph 19.6 mph N/A   Clear
5:15 PM 66.0 °F 62.8 °F 89% 29.93 in 10.0 mi SSE 12.7 mph 17.3 mph N/A   Clear
5:35 PM 64.9 °F 62.2 °F 91% 29.94 in 10.0 mi SE 11.5 mph 16.1 mph N/A   Clear
5:55 PM 64.6 °F 62.6 °F 93% 29.94 in 10.0 mi SE 10.4 mph - N/A   Clear
6:15 PM 63.5 °F 61.9 °F 94% 29.95 in 10.0 mi SE 8.1 mph - N/A   Clear
6:35 PM 62.2 °F 62.1 °F 99% 29.95 in 10.0 mi SE 10.4 mph - N/A   Clear
6:55 PM 62.1 °F 61.9 °F 99% 29.95 in 10.0 mi SSE 10.4 mph - N/A   Clear
7:15 PM 61.3 °F 61.3 °F 100% 29.96 in 10.0 mi SSE 9.2 mph - N/A   Clear
7:35 PM 61.0 °F 61.0 °F 100% 29.96 in 7.0 mi SSE 9.2 mph - N/A   Clear
7:55 PM 61.9 °F 61.9 °F 100% 29.96 in 10.0 mi SSE 11.5 mph - N/A   Clear
8:15 PM 62.6 °F 62.6 °F 100% 29.97 in 10.0 mi South 11.5 mph - N/A   Clear
8:35 PM 62.8 °F 62.8 °F 100% 29.97 in 10.0 mi South 10.4 mph 18.4 mph N/A   Clear
8:55 PM 62.4 °F 62.4 °F 100% 29.97 in 7.0 mi SSE 13.8 mph - N/A   Clear
9:15 PM 61.7 °F 61.7 °F 100% 29.97 in 7.0 mi SSE 11.5 mph - N/A   Clear
9:35 PM 61.2 °F 61.2 °F 100% 29.98 in 7.0 mi SSE 9.2 mph - N/A   Clear
9:55 PM 61.7 °F 61.7 °F 100% 29.98 in 7.0 mi SSE 8.1 mph - N/A   Clear
10:15 PM 61.7 °F 61.7 °F 100% 29.97 in 7.0 mi SSE 9.2 mph - N/A   Scattered Clouds
10:35 PM 61.3 °F 61.3 °F 100% 29.97 in 5.0 mi SSE 8.1 mph - N/A   Mostly Cloudy
10:55 PM 61.2 °F 61.2 °F 100% 29.97 in 7.0 mi SSE 8.1 mph - N/A   Scattered Clouds
11:35 PM 60.8 °F 60.8 °F 100% 29.96 in 5.0 mi SSE 8.1 mph - N/A   Mostly Cloudy
11:55 PM 61.0 °F 61.0 °F 100% 29.95 in 5.0 mi South 10.4 mph - N/A   Overcast